Date String (YYYY-MM-DD hh:mm:ss) UTC,Instrument flags,Ambient pressure (hPa),Sample flow (lpm),Bypass flow (lpm),Sample temperature (°C),Ambient temperature (°C),ASC tube jacket temperature (°C),LED temperature (°C),Box temperature (°C),Sample RH (%),Span deviation,Mass concentration (μg/m³),Mass concentration (μg/m³),Mass concentration (μg/m³)
DateTimeUTC,F1_M11,P_M11,Q1_M11,Q2_M11,T1_M11,T2_M11,T3_M11,T4_M11,T5_M11,U1_M11,ZSPAN_M11,X2_M11,X0_M11,X1_M11
2022-08-09 16:00:00,,0831.7,4.99,0.00,29.6,28.2,00.0,38.4,31.5,32.6,0000.0,0005.82,0012.33,0004.91
2022-08-09 16:01:00,,0831.7,5.01,0.00,29.6,28.3,00.0,38.4,31.5,33.5,0000.0,0005.80,0011.97,0004.91
2022-08-09 16:02:00,,0831.7,5.00,0.00,29.6,28.4,00.0,38.4,31.6,32.9,0000.0,0005.77,0011.69,0004.90
2022-08-09 16:03:00,,0831.7,5.00,0.00,29.7,28.4,00.0,38.4,31.6,32.5,0000.0,0005.75,0011.47,0004.89
2022-08-09 16:04:00,,0831.7,5.01,0.00,29.6,27.8,00.0,38.4,31.4,32.1,0000.0,0005.74,0012.07,0004.88
2022-08-09 16:05:00,,0831.7,4.99,0.00,29.6,27.5,00.0,38.3,31.4,32.3,0000.0,0005.73,0012.06,0004.87
2022-08-09 16:06:00,,0831.7,5.00,0.00,29.6,27.4,00.0,38.3,31.3,32.2,0000.0,0005.71,0011.48,0004.86
2022-08-09 16:07:00,,0831.7,5.00,0.00,29.5,27.5,00.0,38.3,31.3,31.1,0000.0,0005.71,0011.28,0004.86
2022-08-09 16:08:00,,0831.7,5.00,0.00,29.5,27.7,00.0,38.3,31.3,31.2,0000.0,0005.76,0010.86,0004.85
2022-08-09 16:09:00,,0831.7,5.01,0.00,29.5,27.8,00.0,38.3,31.3,31.1,0000.0,0005.74,0010.50,0004.85
2022-08-09 16:10:00,,0831.7,5.01,0.00,29.5,28.0,00.0,38.3,31.4,30.6,0000.0,0005.74,0010.53,0004.86
2022-08-09 16:11:00,,0831.7,5.00,0.00,29.5,28.2,00.0,38.3,31.5,31.1,0000.0,0005.76,0010.43,0004.86
2022-08-09 16:12:00,,0831.8,4.99,0.00,29.6,28.3,00.0,38.3,31.5,30.7,0000.0,0005.74,0010.59,0004.86
2022-08-09 16:13:00,,0831.8,4.99,0.00,29.6,28.4,00.0,38.3,31.6,30.6,0000.0,0005.75,0010.99,0004.87
2022-08-09 16:14:00,,0831.7,5.00,0.00,29.6,28.5,00.0,38.4,31.6,30.6,0000.0,0005.78,0011.13,0004.88
2022-08-09 16:15:00,,0831.7,5.01,0.00,29.6,28.0,00.0,38.3,31.4,31.2,0000.0,0005.80,0010.76,0004.89
2022-08-09 16:16:00,,0831.7,4.99,0.00,29.6,27.5,00.0,38.3,31.3,31.3,0000.0,0005.82,0011.17,0004.90
2022-08-09 16:17:00,,0831.7,5.01,0.00,29.5,27.4,00.0,38.3,31.3,31.5,0000.0,0005.83,0012.14,0004.91
2022-08-09 16:18:00,,0831.7,4.99,0.00,29.5,27.5,00.0,38.3,31.3,31.5,0000.0,0005.82,0012.43,0004.93
2022-08-09 16:19:00,,0831.7,5.01,0.00,29.5,27.6,00.0,38.3,31.3,31.9,0000.0,0005.80,0013.17,0004.92
2022-08-09 16:20:00,,0831.7,4.99,0.00,29.5,27.8,00.0,38.3,31.4,32.4,0000.0,0005.79,0013.19,0004.92
2022-08-09 16:21:00,,0831.7,5.00,0.00,29.5,28.0,00.0,38.3,31.4,32.2,0000.0,0005.79,0013.19,0004.93
2022-08-09 16:22:00,,0831.7,4.99,0.00,29.5,28.1,00.0,38.3,31.5,32.7,0000.0,0005.81,0013.38,0004.93
2022-08-09 16:23:00,,0831.7,5.00,0.00,29.6,28.3,00.0,38.3,31.5,33.4,0000.0,0005.83,0013.24,0004.93
2022-08-09 16:24:00,,0831.8,5.00,0.00,29.6,28.4,00.0,38.3,31.5,33.7,0000.0,0005.83,0013.02,0004.94
2022-08-09 16:25:00,,0831.7,5.01,0.00,29.6,28.0,00.0,38.3,31.5,33.5,0000.0,0005.85,0013.43,0004.94
2022-08-09 16:26:00,,0831.8,4.98,0.00,29.6,27.5,00.0,38.3,31.4,32.8,0000.0,0005.83,0013.22,0004.94
2022-08-09 16:27:00,,0831.7,5.01,0.00,29.5,27.4,00.0,38.3,31.3,32.6,0000.0,0005.83,0012.99,0004.95
2022-08-09 16:28:00,,0831.7,4.98,0.00,29.4,27.4,00.0,38.2,31.2,32.4,0000.0,0005.82,0012.02,0004.96
2022-08-09 16:29:00,,0831.7,5.01,0.00,29.4,27.6,00.0,38.2,31.3,32.5,0000.0,0005.85,0011.78,0004.96
2022-08-09 16:30:00,,0831.7,5.00,0.00,29.4,27.7,00.0,38.2,31.3,31.8,0000.0,0005.82,0011.16,0004.96
2022-08-09 16:31:00,,0831.7,5.00,0.00,29.5,27.9,00.0,38.2,31.4,32.6,0000.0,0005.84,0011.40,0004.96
2022-08-09 16:32:00,,0831.7,5.00,0.00,29.5,28.1,00.0,38.3,31.4,32.4,0000.0,0005.84,0011.37,0004.96
2022-08-09 16:33:00,,0831.7,5.00,0.00,29.5,28.2,00.0,38.3,31.5,32.7,0000.0,0005.79,0011.20,0004.97
2022-08-09 16:34:00,,0831.7,5.00,0.00,29.6,28.3,00.0,38.3,31.5,33.7,0000.0,0005.77,0011.20,0004.97
2022-08-09 16:35:00,,0831.8,5.00,0.00,29.6,28.0,00.0,38.3,31.4,33.5,0000.0,0005.82,0011.86,0004.97
2022-08-09 16:36:00,,0831.8,4.99,0.00,29.5,27.5,00.0,38.2,31.3,34.0,0000.0,0005.83,0011.42,0004.99
2022-08-09 16:37:00,,0831.8,4.99,0.00,29.5,27.3,00.0,38.2,31.3,33.9,0000.0,0005.87,0011.78,0005.00
2022-08-09 16:38:00,,0831.7,5.01,0.00,29.4,27.4,00.0,38.2,31.2,33.7,0000.0,0005.91,0011.94,0005.00
2022-08-09 16:39:00,,0831.7,4.99,0.00,29.4,27.5,00.0,38.2,31.2,33.4,0000.0,0005.91,0012.09,0005.00
2022-08-09 16:40:00,,0831.7,5.00,0.00,29.4,27.7,00.0,38.2,31.3,32.6,0000.0,0005.87,0012.18,0005.00
2022-08-09 16:41:00,,0831.7,4.99,0.00,29.4,27.9,00.0,38.2,31.3,32.9,0000.0,0005.85,0012.05,0005.01
2022-08-09 16:42:00,,0831.7,4.99,0.00,29.4,28.0,00.0,38.2,31.4,33.8,0000.0,0005.87,0011.64,0005.02
2022-08-09 16:43:00,,0831.7,5.00,0.00,29.5,28.2,00.0,38.2,31.4,32.7,0000.0,0005.88,0011.99,0005.03
2022-08-09 16:44:00,,0831.7,5.00,0.00,29.5,28.2,00.0,38.2,31.4,32.7,0000.0,0005.89,0012.11,0005.03
2022-08-09 16:45:00,,0831.7,5.00,0.00,29.5,27.7,00.0,38.2,31.4,32.7,0000.0,0005.90,0012.50,0005.03
2022-08-09 16:46:00,,0831.7,5.00,0.00,29.5,27.4,00.0,38.2,31.2,32.8,0000.0,0005.88,0012.50,0005.03
2022-08-09 16:47:00,,0831.8,5.00,0.00,29.4,27.3,00.0,38.2,31.2,32.5,0000.0,0005.83,0012.42,0005.02
2022-08-09 16:48:00,,0831.8,5.00,0.00,29.3,27.4,00.0,38.2,31.1,32.3,0000.0,0005.79,0012.36,0005.00
2022-08-09 16:49:00,,0831.8,5.01,0.00,29.3,27.6,00.0,38.2,31.2,33.0,0000.0,0005.79,0011.89,0004.99
2022-08-09 16:50:00,,0831.8,4.99,0.00,29.4,27.7,00.0,38.2,31.2,33.6,0000.0,0005.75,0011.70,0004.97
2022-08-09 16:51:00,,0831.8,5.01,0.00,29.4,27.9,00.0,38.2,31.3,33.5,0000.0,0005.73,0011.42,0004.95
2022-08-09 16:52:00,,0831.9,5.00,0.00,29.4,28.1,00.0,38.2,31.4,33.3,0000.0,0005.79,0011.97,0004.96
2022-08-09 16:53:00,,0831.9,5.00,0.00,29.4,28.2,00.0,38.2,31.4,33.3,0000.0,0005.78,0012.31,0004.95
2022-08-09 16:54:00,,0831.9,4.99,0.00,29.5,28.0,00.0,38.2,31.3,32.9,0000.0,0005.76,0012.30,0004.92
2022-08-09 16:55:00,,0831.9,5.00,0.00,29.4,27.4,00.0,38.1,31.2,32.5,0000.0,0005.77,0012.65,0004.90
2022-08-09 16:56:00,,0832.0,5.00,0.00,29.4,27.2,00.0,38.1,31.2,31.4,0000.0,0005.78,0013.23,0004.88
2022-08-09 16:57:00,,0831.9,4.98,0.00,29.3,27.3,00.0,38.1,31.1,31.6,0000.0,0005.73,0012.64,0004.85
2022-08-09 16:58:00,,0832.0,5.01,0.00,29.3,27.4,00.0,38.1,31.1,31.3,0000.0,0005.71,0012.37,0004.83
2022-08-09 16:59:00,,0831.9,5.00,0.00,29.3,27.6,00.0,38.1,31.2,35.7,0000.0,0005.70,0012.21,0004.83
